Regional Weather Roundup
Issued by NWS Grand Forks, ND

Home | Current Version | Previous Version | Graphics & Text | Print | Product List | Glossary On
Versions: 1 2 3 4 5 6 7 8 9 10 11 12 13 14 15 16 17 18 19 20 21 22 23 24 25 26 27 28 29 30 31 32 33 34 35 36 37 38 39 40 41 42 43 44 45 46 47 48 49 50
000
ASUS43 KFGF 290831
RWRFGF
PRAIRIE TO PINES  WEATHER ROUNDUP
NATIONAL WEATHER SERVICE EASTERN NORTH DAKOTA/GRAND FORKS ND
300 AM CDT TUE JUL 29 2014

 **SATELLITE DATA USED TO AUGMENT SKY COVER AT AUTOMATED STATIONS**
 *****  WEATHER ACROSS EASTERN NORTH DAKOTA  *****

CITY           SKY/WX    TMP DP  RH WIND       PRES   REMARKS
GRAND FORKS    CLEAR     54  52  93 W5        30.17F
GRAND FRKS AFB CLEAR     54  54  99 W2        30.19S
GRAND FRKS NWS   N/A     52 N/A N/A MISG        N/A
DEVILS LAKE    CLEAR     57  52  82 CALM      30.20S
FARGO          CLEAR     55  52  89 CALM      30.18F
WAHPETON ARPT  SUNNY     50  46  87 W5        30.19S
$$

 ***** WEATHER ACROSS CENTRAL AND WESTERN NORTH DAKOTA  *****

CITY           SKY/WX    TMP DP  RH WIND       PRES   REMARKS
BISMARCK       CLEAR     54  52  93 NE3       30.24S
MINOT          CLEAR     58  54  86 SW8       30.21F
JAMESTOWN      CLEAR     53  49  86 W3        30.22S
MINOT AFB      CLEAR     55  55  99 W5        30.21S
GARRISON         N/A     55  53  93 CALM      30.23S
WILLISTON      CLEAR     57  53  86 N3        30.22S
DICKINSON      CLEAR     55  50  83 S9        30.23F
HETTINGER      PTCLDY    50  46  86 CALM      30.26F
$$

 *****  OTHER AIRPORT OBSERVATIONS IN OUR AREA  *****

CITY           SKY/WX    TMP DP  RH WIND       PRES   REMARKS
WALHALLA         N/A     54  54 100 CALM        N/A
GRAFTON AIRPOR FAIR      55  55 100 NW3       30.17F
VALLEY CITY AR FAIR      52  52 100 CALM      30.21F
CANDO          FAIR      52  50  93 CALM      30.22S
CAVALIER APRT  FAIR      54  52  94 W5        30.18S
GWINNER        SUNNY     55  54  94 W7        30.22S
SHEYENNE NWR     N/A     52  50  94 W2        29.95
ROLLA          PTSUNNY   50  50 100 W3        30.23S
 ***** THE ABOVE OBSERVATIONS ARE NON NWS ARE NOT QUALITY
       CONTROLLED AND MAY MIS-REPORT RAIN FOR SNOW...
$$

  *****  WEATHER ACROSS NORTHERN MINNESOTA  *****

CITY           SKY/WX    TMP DP  RH WIND       PRES   REMARKS
FLAG ISLAND    CLEAR     63  57  82 NW14      30.11F
WARROAD        CLEAR     57  54  88 W6        30.14F
ROSEAU         CLEAR     57  54  88 W7        30.15S
HALLOCK        CLEAR     54  52  94 CALM      30.17S
THF RVR FALLS  CLEAR     57  54  88 CALM      30.17S
BAUDETTE       PTCLDY    59  56  89 VRB3      30.14S
WASKISH        CLEAR     63  57  82 NW8       30.14S
CROOKSTON      CLEAR     54  52  94 NW3       30.18F
$$
  *****  WEATHER ACROSS CENTRAL AND WEST MINNESOTA  *****

CITY           SKY/WX    TMP DP  RH WIND       PRES   REMARKS
FOSSTON        CLEAR     50  46  87 CALM      30.18S
BEMIDJI        CLEAR     56  53  90 W7        30.16S
PARK RAPIDS    CLEAR     50  49  96 W3        30.17S
ELBOW LAKE     FAIR      55  53  93 NW5       30.19S
WADENA         CLEAR     54  52  94 W5        30.17S
DETROIT LAKES  CLEAR     57  54  88 CALM      30.19S
MOORHEAD       CLEAR     55  55 100 CALM      30.19S
FERGUS FALLS   CLEAR     55  52  88 CALM      30.19S
MORRIS MN      CLEAR     52  52 100 NW6       30.18F
STAPLES        CLEAR     54  52  94 W3        30.16F
$$
  *****  WEATHER ELSEWHERE ACROSS MINNESOTA  *****

CITY           SKY/WX    TMP DP  RH WIND       PRES   REMARKS
DULUTH         PTCLDY    57  53  86 NW5       30.10S
INTRNTL FALLS  CLEAR     55  54  96 CALM      30.10S
ELY            MOCLDY    57  54  88 S3        30.08F
CLOQUET        CLEAR     54  52  94 CALM      30.11S
WHEATON        CLEAR     54  52  94 W3        30.21S
BRAINERD       PTCLDY    59  53  80 NW5       30.15F
HIBBING        CLEAR     52  49  89 CALM      30.11F
ALEXANDRIA     CLEAR     58  55  90 NW3       30.19F
SAINT CLOUD    CLEAR     59  53  80 N3        30.14F
MINNEAPOLIS    CLEAR     62  56  80 NW6       30.13S
$$

  *****  WEATHER ACROSS SOUTH DAKOTA  *****

CITY           SKY/WX    TMP DP  RH WIND       PRES   REMARKS
SIOUX FALLS    CLEAR     53  52  96 CALM      30.22S
BROOKINGS      NOT AVBL
WATERTOWN      CLEAR     52  49  89 CALM      30.22S
HURON          CLOUDY    53  51  93 CALM      30.22S
SISSETON         N/A     53  52  96 NW3       30.19F
ABERDEEN       CLEAR     49  49 100 CALM      30.22F
MITCHELL       CLEAR     54  51  90 NW3       30.22F
PIERRE         PTCLDY    54  51  90 E6        30.22S
MOBRIDGE       CLEAR     56  52  86 SE6       30.22S
RAPID CITY     CLEAR     53  49  86 CALM      30.28S
$$

  *****  SOME WEATHER IN NEARBY STATES *****

CITY           SKY/WX    TMP DP  RH WIND       PRES   REMARKS
GLASGOW MT     CLEAR     60  47  61 E10       30.19F
GREAT FALLS MT MOCLDY    72  48  42 SE9       30.16F
CHEYENNE WY    CLEAR     58  52  80 SW7       30.31F
SCOTTSBLUFF NE PTCLDY    65  59  81 E8        30.21F
OMAHA NE       CLEAR     59  56  89 N5        30.19F
DES MOINES IA  CLEAR     61  57  87 CALM      30.16S
DAVENPORT IA   CLEAR     51  49  92 W5        30.11F
CHICAGO IL     CLEAR     62  51  67 NW6       30.03F
EAU CLAIRE WI  CLEAR     58  54  86 W3        30.07F
LA CROSSE WI   CLEAR     59  55  87 SE3       30.08F
$$

  *****  SOME NATIONAL WEATHER *****

CITY           SKY/WX    TMP DP  RH WIND       PRES   REMARKS
LA GUARDIA NY  CLEAR     66  55  67 NW17      29.75R
RALEIGH NC     PTCLDY    65  56  72 CALM      29.89R
ATLANTA GA     CLEAR     69  60  73 NW10      29.96F
NEW ORLEANS LA MOCLDY    83  70  64 NE12      29.99F
OKLAHOMA CITY  MOCLDY    74  63  68 CALM      30.16S
ALBUQUERQUE NM LGT RAIN  67  59  75 E16       30.31F
SALT LAKE CITY CLOUDY    67  63  87 W5        30.21F
LOS ANGELES CA PTCLDY    69  61  75 SE5       30.02S
BOISE ID       MOCLDY    81  49  32 SE6       30.05R
SEATTLE WA     CLEAR     71  50  47 NE13      30.09S
$$

*** WEATHER ACROSS MANITOBA...SASKATCHEWAN AND ONTARIO ***
                ***ONTARIO***

CITY           SKY/WX    TMP DP  RH WIND       PRES   REMARKS
GERALDTON      CLEAR     52  52 100 N6        29.95S FOG
THUNDER BAY    MOCLDY    57  55  94 SW9       29.98F
SIOUX LOOKOUT  PTCLDY    54  54 100 CALM      30.04F
TORONTO        MOCLDY    57  52  82 NW10      29.87F
BIG TROUT LK   CLEAR     52  48  87 E6        30.06S
PICKLE LAKE    NOT AVBL
DRYDEN         CLEAR     57  54  88 W7        30.06F
KENORA         MOCLDY    61  55  82 NW9       30.12S
$$
                *** MANITOBA***

CITY           SKY/WX    TMP DP  RH WIND       PRES   REMARKS
BRANDON        CLEAR     50  48  93 NW7       30.21F
DAUPHIN        CLEAR     54  50  87 W8        30.19S
ISLAND LAKE    PTCLDY    61  54  77 CALM      30.06S
PILOT MOUND      N/A     50  46  87 W3          N/A
THE PAS        CLEAR     54  54 100 CALM      30.16S
THOMPSON       PTCLDY    50  48  93 NW2       30.09S
WINNIPEG       CLEAR     54  52  94 W7        30.17S
LYNN LAKE      CLEAR     57  54  88 W5        30.11F
CHURCHILL      FOG       43  43 100 SE6       30.17S VSB 1/2
GILLAM         FOG       52  52 100 E5        30.11S VSB 1/4
$$
                ***SASKATCHEWAN***

CITY           SKY/WX    TMP DP  RH WIND       PRES   REMARKS
ESTEVAN        MOCLDY    59  57  94 E2        30.23S
KINDERSLEY     CLEAR     59  55  88 SE9       30.21F
LLOYDMINSTER   MOCLDY    63  57  82 S7        30.21R
PRINCE ALBERT  FOG       55  55 100 E2        30.20S VSB 1/2
REGINA         CLEAR     61  59  94 S2        30.22S
YORKTON        CLEAR     59  57  94 S5        30.21S
N. BATTLEFORD    N/A     59  55  88 E7        30.22F
LA RONGE       CLEAR     52  50  93 CALM      30.18S
SASKATOON      CLEAR     61  61 100 CALM      30.22F
SWIFT CURRENT  CLEAR     54  50  87 SE9       30.23S
$$
NOTE: THESE ARE AUTOMATED STATIONS WITH LIMITED QUALITY CONTROL
      "FAIR" INDICATES FEW OR NO CLOUDS BELOW 12,000 FEET WITH NO
      SIGNIFICANT WEATHER AND/OR OBSTRUCTIONS TO VISIBILITY.
      SKY/WX - SKY CONDITION AND SIGNIFICANT WEATHER.
      TMP - AIR TEMPERATURE.    DP   - DEWPOINT TEMPERATURE.
      RH  - RELATIVE HUMIDITY.  PRES - PRESSURE.
      HX  - HEAT INDEX.         WCI  - WIND CHILL INDEX.
$



USA.gov is the U.S. government's official web portal to all federal, state and local government web resources and services.